Etusivu
METAR-TAF:

METAR-TAF

Lentoasemat :

Clayton, New Mexico, Yhdysvallat

Leveyspiiri: 36-26-54N, Pituuspiiri: 103-09-11W, korkeus merenpinnasta: 1513 m

Tämänhetkinen sää

Tämä raportti tehtiin 36 minuuttia sitten, kello 03.55 UTC
Tuuli 6 kn pohjoisesta/koillisesta
Lämpötila 10°C
Kosteus 53%
Ilmanpaine 1027 hPa
Näkyvyys: 16.1 km
selkeää

METAR: KCAO 260355Z AUTO 02006KT 10SM CLR 10/01 A3032 RMK AO2 SLP234 T01000011

Aika: 22:31 (04:31 UTC)


TAF: puuttuu

Säähavainnot ja -ennusteet yli 4000 lentoasemalta (METAR- ja TAF-raportit).

Käytössä olevat sääasemat on merkitty karttaan keltaisilla ja punaisilla pisteillä.

Aseta hiiri pisteen päälle nähdäksesi sääaseman nimen.

Klikkaa sitten nähdäksesi säähavainnot ja -ennusteet.

Kartan vaihtaminen: klikkaa mustalla rastilla varustettuja vihreitä pisteitä, niin voit zoomata sisään; viivalla varustettua vihreää pistettä, niin voit zoomata ulos tai vihreitä nuolia, niin pääset viereisille kartoille.


METAR-TAF: